Fredericksburg, Texas, United States (78624)
Lat: 30.27N, Lon: 98.87W
Wx Zone: TXZ188
Local Info
Past Weather Observations for Today

NOTE: This archive is for the closest National Weather Service station to Fredericksburg. Information may differ from the station used for current weather conditions.

Click here for Long-term Archive

Time Weather Temperature Dewpoint Humidity Pressure Winds Precip Visibility
16:15
Clear
82°F / 28°C 41°F / 5°C 23% 29.74 in
(1007 mb)
Calm - 10SM
15:55
Clear
82°F / 28°C 43°F / 6°C 25% 29.74 in
(1007 mb)
N 5.8 mph
(N 9 kph)
- 10SM
15:35
Clear
82°F / 28°C 41°F / 5°C 23% 29.74 in
(1007 mb)
NNW 4.6 mph
(NNW 7 kph)
- 10SM
15:15
Clear
82°F / 28°C 41°F / 5°C 23% 29.74 in
(1007 mb)
N 8.1 mph
(N 13 kph)
- 10SM
14:55
Clear
82°F / 28°C 37°F / 3°C 20% 29.77 in
(1008 mb)
NW 4.6 mph
(NW 7 kph)
- 10SM
14:35
Clear
81°F / 27°C 45°F / 7°C 28% 29.77 in
(1008 mb)
NNE 8.1 mph
(NNE 13 kph)
- 10SM
14:15
Clear
81°F / 27°C 45°F / 7°C 28% 29.77 in
(1008 mb)
ENE 4.6 mph
(ENE 7 kph)
- 10SM
13:55
Clear
81°F / 27°C 52°F / 11°C 37% 29.77 in
(1008 mb)
SE 4.6 mph
(SE 7 kph)
- 10SM
13:35
Clear
79°F / 26°C 54°F / 12°C 42% 29.8 in
(1009 mb)
ENE 3.5 mph
(ENE 6 kph)
- 10SM
13:15
Clear
79°F / 26°C 55°F / 13°C 45% 29.8 in
(1009 mb)
E 4.6 mph
(E 7 kph)
- 10SM
12:55
Clear
77°F / 25°C 54°F / 12°C 44% 29.8 in
(1009 mb)
SSE 4.6 mph
(SSE 7 kph)
- 10SM
12:35
Partly Cloudy
77°F / 25°C 57°F / 14°C 51% 29.8 in
(1009 mb)
E 4.6 mph
(E 7 kph)
- 10SM
12:15
Partly Cloudy
77°F / 25°C 57°F / 14°C 51% 29.8 in
(1009 mb)
ESE 5.8 mph
(ESE 9 kph)
- 10SM
11:55
Clear
75°F / 24°C 57°F / 14°C 54% 29.8 in
(1009 mb)
Calm - 10SM
11:35
Clear
75°F / 24°C 57°F / 14°C 54% 29.83 in
(1010 mb)
E 4.6 mph
(E 7 kph)
- 10SM
11:15
Clear
73°F / 23°C 57°F / 14°C 57% 29.83 in
(1010 mb)
E 4.6 mph
(E 7 kph)
- 10SM
10:55
Clear
73°F / 23°C 57°F / 14°C 57% 29.83 in
(1010 mb)
SE 3.5 mph
(SE 6 kph)
- 10SM
10:35
Clear
72°F / 22°C 55°F / 13°C 57% 29.83 in
(1010 mb)
ENE 5.8 mph
(ENE 9 kph)
- 10SM
10:15
Clear
72°F / 22°C 55°F / 13°C 57% 29.83 in
(1010 mb)
ENE 6.9 mph
(ENE 11 kph)
- 10SM
09:55
Clear
70°F / 21°C 55°F / 13°C 60% 29.83 in
(1010 mb)
NE 5.8 mph
(NE 9 kph)
- 10SM
09:35
Clear
70°F / 21°C 55°F / 13°C 60% 29.83 in
(1010 mb)
N 4.6 mph
(N 7 kph)
- 10SM
09:15
Partly Cloudy
68°F / 20°C 54°F / 12°C 60% 29.8 in
(1009 mb)
NNE 6.9 mph
(NNE 11 kph)
- 10SM
08:55
Partly Cloudy
68°F / 20°C 54°F / 12°C 60% 29.8 in
(1009 mb)
NE 6.9 mph
(NE 11 kph)
- 10SM
08:35
Partly Cloudy
66°F / 19°C 54°F / 12°C 64% 29.8 in
(1009 mb)
N 5.8 mph
(N 9 kph)
- 10SM
08:15
Mostly Cloudy
66°F / 19°C 54°F / 12°C 64% 29.8 in
(1009 mb)
N 9.2 mph
(N 15 kph)
- 10SM
07:55
Partly Cloudy
66°F / 19°C 55°F / 13°C 68% 29.8 in
(1009 mb)
N 6.9 mph
(N 11 kph)
- 10SM
07:35
Mostly Cloudy
64°F / 18°C 55°F / 13°C 73% 29.77 in
(1008 mb)
Calm - 10SM
07:15
Mostly Cloudy
63°F / 17°C 55°F / 13°C 77% 29.77 in
(1008 mb)
N 5.8 mph
(N 9 kph)
- 10SM
06:55
Clear
61°F / 16°C 55°F / 13°C 83% 29.77 in
(1008 mb)
NNW 11.5 mph
(NNW 19 kph)
- 10SM
06:35
Clear
59°F / 15°C 55°F / 13°C 88% 29.74 in
(1007 mb)
NNW 8.1 mph
(NNW 13 kph)
- 10SM
06:15
Clear
57°F / 14°C 54°F / 12°C 88% 29.74 in
(1007 mb)
NNW 6.9 mph
(NNW 11 kph)
- 10SM
05:55
Clear
59°F / 15°C 54°F / 12°C 82% 29.74 in
(1007 mb)
N 5.8 mph
(N 9 kph)
- 10SM
05:35
Clear
59°F / 15°C 54°F / 12°C 82% 29.74 in
(1007 mb)
NNW 5.8 mph
(NNW 9 kph)
- 10SM
05:15
Clear
59°F / 15°C 52°F / 11°C 77% 29.71 in
(1006 mb)
NW 6.9 mph
(NW 11 kph)
- 10SM
04:55
Clear
61°F / 16°C 50°F / 10°C 68% 29.71 in
(1006 mb)
NW 3.5 mph
(NW 6 kph)
- 10SM
04:35
Clear
61°F / 16°C 48°F / 9°C 63% 29.74 in
(1007 mb)
NW 5.8 mph
(NW 9 kph)
- 10SM
04:15
Clear
63°F / 17°C 48°F / 9°C 59% 29.71 in
(1006 mb)
NW 4.6 mph
(NW 7 kph)
- 10SM
03:55
Partly Cloudy
63°F / 17°C 55°F / 13°C 77% 29.71 in
(1006 mb)
NW 6.9 mph
(NW 11 kph)
- 10SM
03:35
Partly Cloudy
64°F / 18°C 55°F / 13°C 73% 29.71 in
(1006 mb)
NNW 3.5 mph
(NNW 6 kph)
- 10SM
03:15
Partly Cloudy
64°F / 18°C 54°F / 12°C 68% 29.71 in
(1006 mb)
SSE 3.5 mph
(SSE 6 kph)
- 10SM
02:55
Overcast
Light Rain
66°F / 19°C 54°F / 12°C 64% 29.71 in
(1006 mb)
Calm - 10SM
02:35
Overcast
Thunder Storms
68°F / 20°C 52°F / 11°C 56% 29.71 in
(1006 mb)
Calm - 7SM
02:15
Overcast
Light Rain
68°F / 20°C 55°F / 13°C 64% 29.71 in
(1006 mb)
SSW 4.6 mph
(SSW 7 kph)
- 10SM
01:55
Mostly Cloudy
Thunder Storms
70°F / 21°C 57°F / 14°C 64% 29.68 in
(1005 mb)
SSW 4.6 mph
(SSW 7 kph)
0.01 in
(0.25 mm)
7SM
01:35
Mostly Cloudy
Thunder Storms
70°F / 21°C 57°F / 14°C 64% 29.62 in
(1003 mb)
NE 6.9 mph
(NE 11 kph)
0.01 in
(0.25 mm)
10SM
01:15
Overcast
Light Rain
72°F / 22°C 66°F / 19°C 83% 29.65 in
(1004 mb)
NNE 5.8 mph
(NNE 9 kph)
0.01 in
(0.25 mm)
7SM
00:55
Overcast
72°F / 22°C 68°F / 20°C 88% 29.68 in
(1005 mb)
SSE 3.5 mph
(SSE 6 kph)
- 7SM
00:35
Mostly Cloudy
Fog And Mist
70°F / 21°C 68°F / 20°C 94% 29.68 in
(1005 mb)
Calm - 5SM
00:15
Partly Cloudy
70°F / 21°C 66°F / 19°C 88% 29.68 in
(1005 mb)
Calm - 10SM
Time Weather Temperature Dewpoint Humidity Pressure Winds Precip Visibility


Weather for websites

WeatherForYou.com, LLC is not responsible for any damages or problems caused by this service. Current weather conditions are obtained from the closest station including government and personal stations which may have varying degrees of accuracy. Weather forecasts are derived from the NOAA NDFD. Like all things, this site belongs to Jesus Christ... He just trusts us to maintain it. If you have any questions or comments email webmaster@weatherforyou.com

Copyright © 2016, WeatherForYou.com LLC. All rights reserved.